Location: Tamazert
(32.6352°N, 5.2072°W)
Time: 15:35:40
(UTC+00:00)

Vanguard 3 - Pass Details

Date: 05 October 2022
Orbit: 509 x 3255 km, 33.3° (Epoch: 08 December)

Event Time Altitude Azimuth Distance (km) Brightness Sun altitude
Rises 11:14:42 0° 279° (W) 3,078 9.9 50.4°
Reaches altitude 10° 11:16:38 10° 279° (W) 2,343 9.4 50.5°
Maximum altitude 11:22:06 84° 192° (SSW) 1,103 9.0 50.9°
Drops below altitude 10° 11:31:57 10° 105° (ESE) 4,075 11.1 51.5°
Sets 11:36:19 0° 105° (ESE) 5,537 11.6 51.7°
